Weather Roundup
Issued by NWS Chicago, IL

Home | Current Version | Previous Version | Graphics & Text | Print | Product List | Glossary Off
Versions: 1 2 3 4 5 6 7 8 9 10 11 12 13 14 15 16 17 18 19 20 21 22 23 24 25 26 27 28 29 30 31 32 33 34 35 36 37 38 39 40 41 42 43 44 45 46 47 48 49 50

000
NZUS59 KLOT 172009
HRRLOT

CHICAGO AREA WEATHER ROUNDUP
NATIONAL WEATHER SERVICE CHICAGO/ROMEOVILLE IL
300 PM CDT TUE OCT 17 2017

NOTE: "FAIR" INDICATES FEW OR NO CLOUDS BELOW 12,000 FEET WITH NO
SIGNIFICANT WEATHER AND/OR OBSTRUCTIONS TO VISIBILITY.

* THESE STATIONS ARE NOT UNDER NWS QUALITY CONTROL. THEY ALSO MAY NOT
  REPORT WEATHER SUCH AS PRECIPITATION OR FOG.

ILZ005-006-012>014-019>023-172100-
NORTHEAST ILLINOIS

CITY           SKY/WX    TMP DP  RH WIND       PRES   REMARKS
OHARE          MOSUNNY   70  38  31 SW18      30.12F
MIDWAY         MOSUNNY   70  40  33 SW18G25   30.15F
AURORA         SUNNY     69  42  37 SW15G26   30.15F
LANSING*       SUNNY     70  46  41 SW18      30.17S
JOLIET*        SUNNY     71  41  34 SW14G21   30.16F
WAUKEGAN       SUNNY     71  44  37 SW14G24   30.09F
DUPAGE AIRPORT SUNNY     69  42  37 SW20G29   30.13F
WHEELING       SUNNY     71  41  33 SW14G25   30.13F
KANKAKEE*      SUNNY     70  39  33 SW13G18   30.19F
MORRIS*        SUNNY     70  41  34 SW13G21   30.15F
LEWIS AIRPORT* SUNNY     70  42  36 W13G22    30.15F
NORTHERLY ISL    N/A     70  36  28 SW16        N/A
$$

WIZ051-052-058>065-066-070>072-172100-
SOUTHEAST WISCONSIN

CITY           SKY/WX    TMP DP  RH WIND       PRES   REMARKS
MILWAUKEE      MOSUNNY   72  43  35 SW18G28   30.07F
KENOSHA*       SUNNY     72  43  35 SW17G26   30.09F
RACINE*        SUNNY     72  43  35 SW17G29   30.08F
BURLINGTON     SUNNY     72  44  37 SW16G24   30.08F
WAUKESHA       SUNNY     70  41  35 SW13G22   30.07F
WEST BEND      SUNNY     68  41  37 SW13      30.05S
$$

INZ001>003-010>013-019-020-172100-
NORTHWEST INDIANA

CITY           SKY/WX    TMP DP  RH WIND       PRES   REMARKS
GARY*          MOSUNNY   72  36  26 SW12G23   30.16F
MICHIGAN CITY* NOT AVBL
RENSSELAER*    NOT AVBL
VALPARAISO     SUNNY     71  42  35 SW13G24   30.18F
$$

LMZ740>746-172100-
SOUTHERN LAKE MICHIGAN

STATION/POSITION TIME  SKY/WX   TEMP WIND        PRES    VSBY
                                AIR  DIR/SP/G
                 (UTC)          (F)  (DEG/KT/KT) (MB)    (MI)
HARRISON CRIB    1940            69  230/ 20/ 25   N/A
BURNHAM HARBOR   2000            70  180/  7/ 20   N/A
CALUMET HARBOR   1948            69  210/  9/ 16 1020.1F
BURNS HARBOR     1940            68  210/ 14/ 23 1021.7F
MICHIGAN CITY    1940            66  200/ 16/ 19   N/A
$$

ABBREVIATIONS USED IN REMARKS
   TC - TEMPERATURE IN CELSIUS
  WCI - WIND CHILL INDEX
   HX - HEAT INDEX
  VSB - VISIBILITY
$$




USA.gov is the U.S. government's official web portal to all federal, state and local government web resources and services.